[[{"header":{"parameterUnit":"m.s-1","parameterCategory":2,"la1":30.2991,"la2":30.254,"lo1":-89.0895,"lo2":-89.0444,"dy":0.0017,"dx":0.0017,"nx":28,"ny":28,"refTime":"2023-10-26T03:00:00:Z","depth":"0","parameterNumber":2,"parameterNumberName":"U-component_of_CURRENTS"},"data":[0,0,0,0,0,0,0,0,0,0,0,0,0,0,0,0,0,0,0,0,0,0,0,0,0,0,0,0,0,0,0,0,0,0,0,0,0,0,0,0,0,0,0,0,0,0,0,0,0,0,0,0,0,0,0,0,0,0,0.328,0.328,0,0.3306,0.3306,0.3306,0.3284,0.3283,0.3282,0.3282,0.3258,0.3258,0.3258,0,0,0,0,0,0,0,0,0,0,0,0,0,0.3205,0.3206,0.328,0.328,0.3281,0.3306,0.3306,0.3306,0.3284,0.3283,0.3282,0.3281,0.3258,0.3258,0.3258,0,0,0,0,0,0,0,0,0,0,0,0,0,0.3233,0.3207,0.328,0.3274,0.3274,0.3306,0.3306,0.3306,0.3284,0.3283,0.3282,0.3281,0.3258,0.3258,0.3258,0.3282,0,0,0.3258,0.3258,0,0,0,0,0,0,0,0,0.3232,0.3236,0.3274,0.3275,0.3274,0.3292,0.3271,0.3296,0.3285,0.3279,0.3282,0.328,0.3267,0.3266,0.3272,0.328,0.3279,0.3258,0.3258,0.3258,0.3258,0,0,0,0,0,0,0,0.323,0.3235,0.3288,0.3275,0.3275,0.3268,0.3271,0.3276,0.3276,0.3279,0.3278,0.3284,0.3266,0.3272,0.3271,0.3279,0.3258,0.3258,0.3258,0.3258,0.3313,0.3314,0,0,0,0,0,0,0.3232,0.3233,0.3288,0.3289,0.3252,0.3271,0.3273,0.3286,0.3277,0.3276,0.3285,0.3283,0.3272,0.3271,0.327,0.33,0.3258,0.3258,0.3259,0.3311,0.3313,0.3314,0,0,0,0,0,0,0.323,0.3237,0.3287,0.3262,0.3268,0.3273,0.3288,0.3287,0.3297,0.3283,0.328,0.3296,0.3271,0.327,0.3283,0.3298,0.3259,0.3259,0.331,0.3312,0.3314,0.3358,0,0,0,0,0,0,0.3228,0.3236,0.3247,0.3263,0.327,0.3314,0.3289,0.3289,0.3303,0.3301,0.3291,0.3287,0.327,0.3283,0.3283,0.3298,0.3259,0.3308,0.331,0.3313,0.3354,0.3361,0.3366,0,0,0,0,0,0.3226,0.3241,0.3248,0.3254,0.3285,0.3315,0.3318,0.3316,0.3305,0.3319,0.3311,0.3288,0.3299,0.3284,0.3284,0.3299,0.3307,0.331,0.3313,0.3352,0.336,0.3366,0,0,0,0,0,0,0.3202,0.3241,0.3248,0.3272,0.3298,0.3312,0.3324,0.3326,0.3333,0.3327,0.3308,0.3305,0.3324,0.3311,0.3296,0.3324,0.3299,0.3302,0.3328,0.3336,0.3342,0.3358,0.3259,0,0,0,0,0,0.3208,0.3234,0.3266,0.3285,0.3302,0.3318,0.3329,0.3333,0.3341,0.3343,0.3336,0.3331,0.3338,0.3336,0.334,0.3356,0.3365,0.3366,0.3372,0.3377,0.3392,0.3431,0.3442,0.3324,0.3324,0.3324,0,0,0.3201,0.3227,0.3239,0.3283,0.3301,0.3326,0.3321,0.3347,0.3362,0.334,0.3355,0.3356,0.335,0.3367,0.3374,0.3356,0.3414,0.3381,0.3385,0.3398,0.3435,0.3447,0.3457,0.3326,0.3326,0.3326,0,0,0.3201,0.3231,0.3254,0.3281,0.332,0.3336,0.3348,0.3375,0.3384,0.3406,0.3395,0.3412,0.3412,0.3417,0.3417,0.3463,0.3451,0.3459,0.3495,0.3532,0.3542,0.3551,0.3571,0.3581,0.3455,0.3455,0.3455,0,0.3191,0.3228,0.3264,0.3292,0.3317,0.3343,0.3371,0.3388,0.3411,0.3428,0.3413,0.3446,0.3437,0.3471,0.3484,0.3476,0.3491,0.3464,0.354,0.3549,0.3558,0.3576,0.3587,0.3457,0.3457,0.3457,0.3457,0,0.3212,0.324,0.3258,0.3307,0.3338,0.3369,0.3405,0.3429,0.3443,0.3459,0.3503,0.3507,0.3525,0.3526,0.3516,0.3573,0.3563,0.3548,0.3521,0.3572,0.3588,0.3598,0.3461,0.346,0.3459,0.3459,0,0,0.3189,0.326,0.3265,0.3286,0.3354,0.3374,0.342,0.347,0.3503,0.3522,0.3569,0.3585,0.3597,0.3601,0.3601,0.3632,0.3697,0.3618,0.3619,0.3635,0.3775,0.3746,0.3754,0.3698,0.37,0.3702,0.3759,0,0.3196,0.3242,0.3289,0.3326,0.3352,0.3404,0.3446,0.349,0.3536,0.3585,0.3607,0.3649,0.3622,0.3646,0.3673,0.3709,0.3728,0.3682,0.3725,0.3727,0.3692,0.3767,0.37,0.3744,0.3769,0.3771,0.3772,0,0.3199,0.3232,0.3275,0.3339,0.336,0.3384,0.3469,0.351,0.359,0.3639,0.3691,0.3714,0.3776,0.3741,0.3816,0.3791,0.3786,0.3798,0.38,0.3767,0.3718,0.3699,0.3762,0.3688,0.3788,0.3787,0.3786,0,0.3152,0.3218,0.3251,0.3272,0.3352,0.3379,0.3421,0.3511,0.357,0.3675,0.3725,0.3804,0.3841,0.3876,0.3891,0.3867,0.3967,0.3929,0.3888,0.3885,0.3835,0.3824,0.3832,0.3965,0.3965,0.3965,0.3965,0,0.314,0.3156,0.3221,0.3233,0.3277,0.3339,0.3409,0.3476,0.3589,0.3662,0.3734,0.3817,0.3879,0.393,0.3936,0.3959,0.3997,0.3921,0.3912,0.3847,0.3837,0.3774,0.3721,0.3967,0.3966,0.3966,0.3966,0,0.3075,0.3124,0.3153,0.3229,0.3251,0.3272,0.3388,0.3442,0.3552,0.3654,0.3691,0.3841,0.394,0.3971,0.4049,0.4006,0.394,0.4017,0.3931,0.3911,0.38,0.3752,0.3596,0.3483,0.4004,0.4003,0.4003,0,0.3041,0.3052,0.3128,0.3148,0.3178,0.323,0.3279,0.3411,0.3477,0.3671,0.3708,0.3849,0.3949,0.4054,0.4057,0.4073,0.3927,0.3967,0.3904,0.3811,0.3751,0.3572,0.3475,0.3852,0.385,0.3849,0.3848,0,0.2975,0.3008,0.304,0.3084,0.3123,0.3179,0.3246,0.33,0.3456,0.3549,0.3693,0.3801,0.3947,0.3982,0.4008,0.4007,0.3809,0.3942,0.3878,0.3671,0.3446,0.3327,0.3783,0.3838,0.3839,0.384,0.384,0.3841,0.2915,0.2927,0.2975,0.3006,0.305,0.3086,0.309,0.3186,0.3277,0.3371,0.3578,0.3677,0.3847,0.3921,0.3883,0.3803,0.3732,0.3717,0.3678,0.3514,0.3364,0.3793,0.3814,0.3815,0.3816,0.3816,0.3817,0,0.2818,0.2855,0.2893,0.2914,0.2908,0.2976,0.3033,0.3016,0.3054,0.3217,0.3321,0.3511,0.3594,0.3678,0.3709,0.3577,0.338,0.3479,0.3235,0.316,0.3601,0.3557,0.3484,0.3484,0.3484,0.3484,0.3484,0.3484,0.277,0.2772,0.2801,0.2754,0.2765,0.2713,0.2715,0.2724,0.2796,0.2878,0.2979,0.3135,0.3425,0.3574,0.3515,0.3424,0.313,0.3005,0.2929,0.3296,0.3315,0.3333,0.3281,0.3151,0.3151,0.2394,0.2389,0.2385]},{"header":{"parameterUnit":"m.s-1","parameterCategory":2,"la1":30.2991,"la2":30.254,"lo1":-89.0895,"lo2":-89.0444,"dy":0.0017,"dx":0.0017,"nx":28,"ny":28,"refTime":"2023-10-26T03:00:00:Z","depth":"0","parameterNumber":3,"parameterNumberName":"V-component_of_CURRENTS"},"data":[0,0,0,0,0,0,0,0,0,0,0,0,0,0,0,0,0,0,0,0,0,0,0,0,0,0,0,0,0,0,0,0,0,0,0,0,0,0,0,0,0,0,0,0,0,0,0,0,0,0,0,0,0,0,0,0,0,0,-0.0051,-0.0052,0,-0.0134,-0.0135,-0.0136,-0.0169,-0.0169,-0.0168,-0.0168,-0.025,-0.0252,-0.0255,0,0,0,0,0,0,0,0,0,0,0,0,0,0.0024,0.0023,-0.0051,-0.0052,-0.0053,-0.0133,-0.0135,-0.0136,-0.0169,-0.0169,-0.0168,-0.0168,-0.0249,-0.0252,-0.0255,0,0,0,0,0,0,0,0,0,0,0,0,0,-0.003,0.0022,-0.0051,-0.0078,-0.0081,-0.0133,-0.0135,-0.0136,-0.0169,-0.0169,-0.0168,-0.0168,-0.0248,-0.0252,-0.0256,-0.029,0,0,-0.0267,-0.0269,0,0,0,0,0,0,0,0,-0.0027,-0.0033,-0.0073,-0.0076,-0.008,-0.0139,-0.0138,-0.0187,-0.0169,-0.0138,-0.0168,-0.0167,-0.0212,-0.0219,-0.0238,-0.0294,-0.0297,-0.0267,-0.027,-0.0271,-0.0272,0,0,0,0,0,0,0,-0.0023,-0.003,-0.0086,-0.0074,-0.0078,-0.0104,-0.0111,-0.0148,-0.0178,-0.0141,-0.0143,-0.0149,-0.0214,-0.0234,-0.024,-0.0299,-0.0267,-0.0271,-0.0273,-0.0275,-0.0381,-0.0381,0,0,0,0,0,0,-0.0007,-0.0027,-0.0083,-0.0088,-0.0049,-0.0105,-0.0113,-0.0122,-0.0178,-0.0186,-0.0149,-0.015,-0.0228,-0.0236,-0.0243,-0.026,-0.0271,-0.0275,-0.0277,-0.038,-0.0381,-0.0382,0,0,0,0,0,0,-0.0005,-0.0012,-0.008,-0.0057,-0.0068,-0.0106,-0.0117,-0.0124,-0.014,-0.0184,-0.0192,-0.0157,-0.0228,-0.0238,-0.0273,-0.0265,-0.0277,-0.028,-0.038,-0.038,-0.0381,-0.0312,0,0,0,0,0,0,-0.0003,-0.0011,-0.0012,-0.0056,-0.0068,-0.0099,-0.0117,-0.0126,-0.0144,-0.0146,-0.0194,-0.0201,-0.0228,-0.0267,-0.0276,-0.027,-0.0283,-0.0379,-0.038,-0.0381,-0.0313,-0.031,-0.0307,0,0,0,0,0,-0.0,0.0002,-0.0012,-0.0018,-0.0069,-0.0099,-0.0107,-0.0134,-0.0145,-0.0148,-0.0184,-0.02,-0.028,-0.027,-0.0282,-0.0276,-0.0378,-0.038,-0.0381,-0.0315,-0.0311,-0.0307,0,0,0,0,0,0,0.0036,-0.0002,-0.0018,-0.0027,-0.0056,-0.0103,-0.0106,-0.0132,-0.0166,-0.0164,-0.0209,-0.0219,-0.0247,-0.0278,-0.0266,-0.0313,-0.0332,-0.0335,-0.0277,-0.0274,-0.0271,-0.0225,-0.0286,0,0,0,0,0,0.0043,0.0035,-0.0007,-0.0013,-0.0023,-0.0067,-0.0083,-0.0102,-0.0137,-0.0151,-0.0188,-0.0227,-0.0264,-0.028,-0.0318,-0.0344,-0.0354,-0.0349,-0.0346,-0.0343,-0.0315,-0.0329,-0.0323,-0.0386,-0.0386,-0.0386,0,0,0.0054,0.0034,0.0029,-0.0006,-0.0029,-0.0033,-0.0075,-0.009,-0.0094,-0.0155,-0.0171,-0.0219,-0.0271,-0.0297,-0.0312,-0.0318,-0.0336,-0.0345,-0.0341,-0.0315,-0.0329,-0.0322,-0.0317,-0.0386,-0.0386,-0.0386,0,0,0.0087,0.0059,0.0068,0.0049,0.0021,-0.0006,-0.0008,-0.0053,-0.0071,-0.0102,-0.0145,-0.0184,-0.0244,-0.0272,-0.0297,-0.0303,-0.0322,-0.0323,-0.0264,-0.0277,-0.0271,-0.0266,-0.0281,-0.0277,-0.0317,-0.0317,-0.0317,0,0.0106,0.0107,0.0066,0.0074,0.007,0.0012,0.0027,-0.0004,-0.0056,-0.006,-0.0093,-0.0173,-0.0226,-0.0245,-0.0252,-0.0291,-0.03,-0.0269,-0.0269,-0.0264,-0.026,-0.0276,-0.0273,-0.0314,-0.0314,-0.0314,-0.0315,0,0.0146,0.0146,0.0152,0.0144,0.0134,0.0133,0.0094,0.0078,0.0043,0.0015,-0.0018,-0.0098,-0.0135,-0.0173,-0.0216,-0.0215,-0.0233,-0.0264,-0.0267,-0.0248,-0.0269,-0.0266,-0.0309,-0.031,-0.0311,-0.0312,0,0,0.0193,0.0183,0.0186,0.0201,0.0173,0.0174,0.017,0.0157,0.0175,0.0103,0.0121,0.0024,-0.0014,-0.0045,-0.0111,-0.0133,-0.0134,-0.0177,-0.0179,-0.0171,-0.0157,-0.0179,-0.0179,-0.0159,-0.0158,-0.0157,-0.0186,0,0.0239,0.0276,0.0254,0.0292,0.0309,0.0268,0.027,0.0253,0.0232,0.0232,0.015,0.0128,0.0033,0.0013,-0.0022,-0.0095,-0.0123,-0.0123,-0.0193,-0.0195,-0.02,-0.0175,-0.0139,-0.0162,-0.0184,-0.0184,-0.0183,0,0.0291,0.0309,0.0353,0.0373,0.0378,0.0386,0.0408,0.0408,0.039,0.0374,0.0345,0.0282,0.0233,0.0144,0.0047,0.0056,-0.0039,-0.0108,-0.0112,-0.0146,-0.0212,-0.0185,-0.0157,-0.0353,-0.018,-0.0181,-0.0181,0,0.0358,0.0385,0.0425,0.0429,0.0434,0.045,0.0456,0.0454,0.0484,0.0476,0.0497,0.0422,0.0398,0.0281,0.0124,0.0093,0.0025,-0.004,-0.0153,-0.0157,-0.0144,-0.0148,-0.029,-0.0109,-0.0109,-0.0109,-0.0109,0,0.0416,0.0452,0.0458,0.0479,0.0535,0.0521,0.0589,0.0582,0.0611,0.0687,0.0579,0.0627,0.0434,0.0361,0.0196,0.0049,0.0078,-0.0121,-0.0156,-0.0124,-0.0125,-0.031,-0.0416,-0.011,-0.011,-0.011,-0.011,0,0.0479,0.0478,0.0531,0.0551,0.0565,0.0609,0.0675,0.0733,0.0737,0.084,0.0841,0.0796,0.0715,0.0505,0.0334,0.0157,-0.0101,-0.0073,-0.0024,-0.0052,-0.035,-0.0452,-0.0598,-0.0686,-0.0191,-0.0191,-0.0192,0,0.0513,0.0542,0.0591,0.0631,0.0641,0.0708,0.0759,0.079,0.0875,0.0969,0.1032,0.0978,0.0996,0.072,0.0397,0.0111,-0.0093,-0.0078,-0.0146,-0.0343,-0.0482,-0.056,-0.0629,-0.0111,-0.0111,-0.0111,-0.011,0,0.0578,0.0589,0.063,0.0712,0.0773,0.0864,0.0952,0.1036,0.1112,0.1214,0.1364,0.1395,0.1137,0.0888,0.0452,0.0242,-0.0198,-0.0085,-0.0293,-0.0425,-0.0509,-0.0618,-0.0129,-0.0109,-0.0109,-0.0109,-0.0109,-0.0109,0.0625,0.0667,0.072,0.0802,0.0885,0.1014,0.1115,0.1244,0.1413,0.1593,0.1624,0.1715,0.131,0.0746,0.042,-0.0185,-0.0205,-0.0373,-0.0478,-0.0536,-0.063,-0.014,-0.0162,-0.0163,-0.0163,-0.0164,-0.0164,0,0.0684,0.073,0.081,0.0916,0.1028,0.106,0.124,0.1368,0.1599,0.1781,0.1929,0.1809,0.1297,0.0738,-0.0069,-0.05,-0.0658,-0.0738,-0.0844,-0.0897,-0.0456,-0.0463,-0.0545,-0.0545,-0.0545,-0.0544,-0.0544,-0.0544,0.0717,0.0798,0.0839,0.1021,0.1107,0.1279,0.1395,0.1598,0.1764,0.2007,0.2092,0.2117,0.1714,0.0307,-0.0673,-0.0902,-0.1189,-0.1245,-0.1423,-0.1138,-0.1112,-0.1088,-0.1122,-0.134,-0.1341,-0.1798,-0.1803,-0.1806]}],[{"header":{"parameterUnit":"m.s-1","parameterCategory":2,"la1":30.2991,"la2":30.254,"lo1":-89.0895,"lo2":-89.0444,"dy":0.0017,"dx":0.0017,"nx":28,"ny":28,"refTime":"2023-10-26T03:00:00:Z","depth":"2","parameterNumber":2,"parameterNumberName":"U-component_of_CURRENTS"},"data":[0,0,0,0,0,0,0,0,0,0,0,0,0,0,0,0,0,0,0,0,0,0,0,0,0,0,0,0,0,0,0,0,0,0,0,0,0,0,0,0,0,0,0,0,0,0,0,0,0,0,0,0,0,0,0,0,0,0,0.2656,0.2658,0,0.2683,0.2683,0.2682,0.2679,0.2679,0.2679,0.268,0.2698,0.2698,0.2698,0,0,0,0,0,0,0,0,0,0,0,0,0,0.2597,0.2597,0.2656,0.2658,0.2659,0.2683,0.2683,0.2682,0.2679,0.2679,0.268,0.268,0.2698,0.2698,0.2698,0,0,0,0,0,0,0,0,0,0,0,0,0,0.2614,0.2597,0.2656,0.2667,0.2669,0.2683,0.2683,0.2682,0.2678,0.2679,0.268,0.268,0.2698,0.2698,0.2698,0.2685,0,0,0.2698,0.2698,0,0,0,0,0,0,0,0,0.2613,0.2615,0.2664,0.2666,0.2669,0.2687,0.2669,0.2686,0.2678,0.2665,0.268,0.2681,0.2699,0.2699,0.2689,0.2686,0.2687,0.2698,0.2698,0.2698,0.2698,0,0,0,0,0,0,0,0.2612,0.2614,0.2657,0.2666,0.2668,0.267,0.2672,0.2671,0.267,0.2666,0.2668,0.2686,0.2699,0.2689,0.269,0.2687,0.2698,0.2698,0.2698,0.2698,0.278,0.2782,0,0,0,0,0,0,0.2627,0.2613,0.2657,0.2659,0.2653,0.2671,0.2673,0.2672,0.267,0.2674,0.2686,0.2686,0.2688,0.2689,0.269,0.2747,0.2698,0.2698,0.2698,0.2778,0.2781,0.2783,0,0,0,0,0,0,0.2626,0.263,0.2656,0.2645,0.265,0.2672,0.2671,0.2673,0.2665,0.2687,0.2688,0.2678,0.2689,0.269,0.274,0.2746,0.2698,0.2698,0.2776,0.2779,0.2782,0.2816,0,0,0,0,0,0,0.2623,0.2629,0.2638,0.2646,0.2651,0.268,0.2672,0.2673,0.268,0.268,0.2681,0.2683,0.2689,0.274,0.274,0.2745,0.2699,0.2773,0.2777,0.2781,0.2812,0.282,0.2826,0,0,0,0,0,0.2621,0.2642,0.2638,0.2645,0.2662,0.2682,0.2683,0.2695,0.2679,0.2685,0.2713,0.2683,0.2765,0.2743,0.2742,0.2746,0.2771,0.2776,0.2781,0.2809,0.2818,0.2826,0,0,0,0,0,0,0.2618,0.2644,0.264,0.2666,0.2679,0.2685,0.2708,0.2691,0.2709,0.2723,0.2714,0.2721,0.2771,0.276,0.2735,0.2787,0.276,0.2765,0.2781,0.279,0.2797,0.2841,0.2699,0,0,0,0,0,0.2623,0.2642,0.266,0.2677,0.2692,0.2689,0.2699,0.2705,0.2725,0.273,0.2741,0.2761,0.2786,0.2791,0.2823,0.2838,0.2846,0.2843,0.285,0.2856,0.2895,0.2904,0.2915,0.2799,0.2799,0.2799,0,0,0.2621,0.2645,0.265,0.2679,0.2691,0.2724,0.2695,0.2725,0.2741,0.2732,0.2774,0.2795,0.2804,0.2848,0.2864,0.2836,0.2895,0.2862,0.2866,0.2903,0.291,0.2921,0.2931,0.2802,0.2802,0.2801,0,0,0.2636,0.2654,0.2676,0.2693,0.2733,0.2756,0.2762,0.2782,0.2782,0.282,0.2833,0.2872,0.2886,0.2911,0.2915,0.2976,0.2945,0.2968,0.3018,0.3025,0.3034,0.3043,0.3067,0.3077,0.2953,0.2953,0.2953,0,0.2635,0.2663,0.2684,0.2713,0.2735,0.277,0.2792,0.281,0.2844,0.285,0.2849,0.292,0.2919,0.297,0.3005,0.2989,0.3,0.2974,0.3032,0.3041,0.3049,0.3071,0.3082,0.2955,0.2955,0.2955,0.2955,0,0.2662,0.2688,0.2711,0.2764,0.2786,0.2825,0.2859,0.2895,0.2907,0.2916,0.2975,0.3007,0.3043,0.304,0.3041,0.3098,0.3091,0.3048,0.3003,0.3062,0.3082,0.3093,0.2958,0.2958,0.2957,0.2956,0,0,0.2646,0.2716,0.2723,0.274,0.2815,0.2834,0.2892,0.2939,0.2983,0.3017,0.3052,0.3107,0.3129,0.3143,0.3148,0.3166,0.3219,0.314,0.3139,0.3154,0.3257,0.3226,0.3234,0.3177,0.3179,0.3181,0.3248,0,0.2661,0.2713,0.2749,0.2802,0.2827,0.2879,0.2935,0.298,0.3025,0.3088,0.3108,0.3171,0.316,0.3197,0.3213,0.3228,0.325,0.3207,0.321,0.3212,0.3166,0.3246,0.301,0.3048,0.3258,0.3259,0.3261,0,0.2667,0.2705,0.2745,0.2811,0.283,0.2885,0.2978,0.3023,0.3117,0.3155,0.3221,0.3251,0.3318,0.3288,0.3345,0.3318,0.3311,0.3312,0.3312,0.3288,0.3201,0.3026,0.3059,0.3278,0.3276,0.3275,0.3274,0,0.2623,0.2695,0.2729,0.2747,0.2845,0.2877,0.2942,0.3039,0.3093,0.3209,0.3269,0.3344,0.3387,0.3402,0.3407,0.338,0.346,0.3394,0.3368,0.3365,0.3173,0.315,0.3442,0.3442,0.3441,0.3441,0.3441,0,0.2614,0.2637,0.2717,0.2735,0.2796,0.2854,0.2946,0.3027,0.3156,0.323,0.3303,0.3385,0.342,0.3455,0.3447,0.3456,0.3477,0.3424,0.3392,0.3179,0.3157,0.3359,0.3349,0.3444,0.3443,0.3443,0.3442,0,0.255,0.2607,0.2643,0.274,0.2773,0.2806,0.2945,0.3017,0.3152,0.3253,0.3295,0.3424,0.3481,0.3507,0.354,0.35,0.351,0.35,0.327,0.3211,0.3404,0.3395,0.3489,0.3488,0.3488,0.3488,0.3488,0,0.2526,0.254,0.2623,0.2653,0.2702,0.2776,0.2841,0.2994,0.3058,0.3265,0.329,0.342,0.346,0.3523,0.351,0.3509,0.3531,0.3277,0.3186,0.3456,0.3415,0.3406,0.3397,0.2937,0.2933,0.2929,0.2926,0,0.2476,0.2507,0.2541,0.2605,0.2663,0.2727,0.2815,0.2861,0.3027,0.3112,0.3216,0.3281,0.3393,0.3301,0.3341,0.33,0.3261,0.3203,0.353,0.2973,0.2944,0.2901,0.2909,0.2892,0.2895,0.2898,0.29,0.2901,0.2431,0.2439,0.2494,0.2541,0.2604,0.2644,0.2648,0.2733,0.2799,0.2867,0.3022,0.3035,0.3108,0.3057,0.2974,0.2933,0.3148,0.2989,0.2996,0.3009,0.2945,0.2917,0.285,0.2852,0.2855,0.2857,0.2859,0,0.2355,0.238,0.2431,0.2468,0.2477,0.2566,0.2602,0.2562,0.2539,0.2663,0.2709,0.2544,0.2532,0.2602,0.2515,0.2535,0.2461,0.2411,0.2287,0.2327,0.236,0.2257,0.1982,0.1978,0.1975,0.1972,0,0,0.2312,0.2313,0.2337,0.2319,0.2354,0.2323,0.2304,0.226,0.229,0.2227,0.2233,0.2428,0.2565,0.2236,0.2215,0.2085,0.2173,0.2004,0.2725,0.2623,0.2651,0.2732,0.2625,0,0,0,0,0]},{"header":{"parameterUnit":"m.s-1","parameterCategory":2,"la1":30.2991,"la2":30.254,"lo1":-89.0895,"lo2":-89.0444,"dy":0.0017,"dx":0.0017,"nx":28,"ny":28,"refTime":"2023-10-26T03:00:00:Z","depth":"2","parameterNumber":3,"parameterNumberName":"V-component_of_CURRENTS"},"data":[0,0,0,0,0,0,0,0,0,0,0,0,0,0,0,0,0,0,0,0,0,0,0,0,0,0,0,0,0,0,0,0,0,0,0,0,0,0,0,0,0,0,0,0,0,0,0,0,0,0,0,0,0,0,0,0,0,0,0.0057,0.0057,0,0.0003,0.0002,0.0001,-0.0051,-0.0052,-0.0052,-0.0053,-0.0147,-0.0149,-0.0151,0,0,0,0,0,0,0,0,0,0,0,0,0,0.0071,0.0072,0.0057,0.0057,0.0056,0.0003,0.0002,0.0001,-0.0051,-0.0052,-0.0053,-0.0053,-0.0146,-0.0149,-0.0151,0,0,0,0,0,0,0,0,0,0,0,0,0,0.0045,0.0072,0.0057,0.0025,0.0021,0.0003,0.0002,0.0001,-0.0051,-0.0052,-0.0053,-0.0053,-0.0146,-0.0148,-0.0151,-0.0154,0,0,-0.0161,-0.0162,0,0,0,0,0,0,0,0,0.0046,0.0044,0.003,0.0027,0.0023,-0.0017,-0.0027,-0.0052,-0.0051,-0.0025,-0.0053,-0.0054,-0.0106,-0.0112,-0.0122,-0.0158,-0.0162,-0.0161,-0.0163,-0.0164,-0.0165,0,0,0,0,0,0,0,0.0048,0.0046,0.0034,0.003,0.0025,-0.0002,-0.0007,-0.0032,-0.0062,-0.0028,-0.0031,-0.0034,-0.0108,-0.0119,-0.0125,-0.0164,-0.0161,-0.0163,-0.0165,-0.0167,-0.0226,-0.0225,0,0,0,0,0,0,0.0062,0.0048,0.0036,0.0033,0.0035,-0.0001,-0.0007,-0.0005,-0.0061,-0.007,-0.0034,-0.0037,-0.0113,-0.0121,-0.0128,-0.0134,-0.0164,-0.0167,-0.0169,-0.0226,-0.0225,-0.0225,0,0,0,0,0,0,0.0062,0.0061,0.0038,0.004,0.0035,-0.0,0.0002,-0.0005,-0.0013,-0.0065,-0.0075,-0.0033,-0.0114,-0.0124,-0.0154,-0.0139,-0.0168,-0.0171,-0.0226,-0.0226,-0.0225,-0.0147,0,0,0,0,0,0,0.0063,0.0062,0.0065,0.0041,0.0036,0.0034,0.0003,-0.0006,-0.0013,-0.0017,-0.0068,-0.0078,-0.0116,-0.0149,-0.0157,-0.0143,-0.0173,-0.0226,-0.0226,-0.0225,-0.015,-0.0144,-0.0139,0,0,0,0,0,0.0064,0.0074,0.0065,0.0063,0.0042,0.0035,0.0029,-0.0,-0.0012,-0.0011,-0.005,-0.0076,-0.0152,-0.0151,-0.016,-0.0147,-0.0227,-0.0226,-0.0226,-0.0152,-0.0145,-0.0139,0,0,0,0,0,0,0.0079,0.0069,0.0059,0.0065,0.0054,0.0026,0.0024,0.001,-0.0019,-0.0027,-0.0074,-0.0087,-0.0108,-0.0139,-0.0137,-0.0165,-0.0193,-0.0194,-0.0134,-0.0128,-0.0122,-0.0113,-0.0176,0,0,0,0,0,0.0087,0.0093,0.0077,0.0083,0.0079,0.0056,0.0048,0.0031,0.0005,-0.0008,-0.0044,-0.0083,-0.0112,-0.0128,-0.0164,-0.0174,-0.0208,-0.0173,-0.0168,-0.0163,-0.0162,-0.0192,-0.0188,-0.0224,-0.0224,-0.0224,0,0,0.0094,0.009,0.0093,0.0087,0.0074,0.0076,0.0049,0.0044,0.0046,-0.0014,-0.0028,-0.0067,-0.0113,-0.0131,-0.0142,-0.0154,-0.0171,-0.0162,-0.0157,-0.016,-0.0191,-0.0187,-0.0184,-0.0223,-0.0223,-0.0223,0,0,0.0119,0.0111,0.0125,0.0121,0.0111,0.0094,0.0099,0.0076,0.0066,0.0047,0.0007,-0.0023,-0.007,-0.0097,-0.0116,-0.01,-0.0143,-0.0109,-0.007,-0.0098,-0.0095,-0.0093,-0.013,-0.0132,-0.0103,-0.0103,-0.0103,0,0.0127,0.0144,0.0128,0.0141,0.0145,0.0109,0.0127,0.0111,0.008,0.0081,0.0048,-0.0014,-0.0054,-0.0065,-0.0066,-0.0086,-0.0114,-0.0087,-0.0089,-0.0088,-0.0087,-0.0126,-0.0129,-0.0099,-0.0099,-0.01,-0.01,0,0.0163,0.0174,0.0184,0.0189,0.019,0.0198,0.018,0.0174,0.0151,0.0135,0.0114,0.0051,0.0018,0.0002,-0.0031,-0.0036,-0.0062,-0.0079,-0.0101,-0.0078,-0.0122,-0.0126,-0.0093,-0.0095,-0.0096,-0.0097,0,0,0.019,0.0207,0.021,0.0227,0.022,0.0227,0.0233,0.0235,0.0252,0.0198,0.0213,0.0146,0.0114,0.0089,0.0047,0.0015,-0.0007,-0.0025,-0.0028,-0.0054,-0.0076,-0.0089,-0.0096,-0.0021,-0.0021,-0.0022,-0.0108,0,0.0224,0.0263,0.0262,0.0298,0.0318,0.03,0.0312,0.0308,0.0295,0.0295,0.0234,0.0218,0.015,0.0137,0.0096,0.0025,-0.0016,0.0017,-0.0102,-0.0106,-0.0113,-0.01,-0.0067,-0.0141,-0.0113,-0.0114,-0.0115,0,0.0263,0.0286,0.033,0.0365,0.0373,0.0384,0.0412,0.0425,0.0416,0.0405,0.0375,0.0325,0.0273,0.0208,0.0089,0.0115,0.0023,-0.0046,-0.0051,-0.0093,-0.0127,-0.0161,-0.0151,-0.0123,-0.0122,-0.0122,-0.0121,0,0.03,0.0338,0.0378,0.0388,0.0412,0.0433,0.0449,0.0458,0.0495,0.0481,0.0493,0.0416,0.039,0.0263,0.0116,0.0105,-0.0021,-0.0052,-0.0157,-0.016,-0.0172,-0.0175,-0.0147,-0.0147,-0.0147,-0.0147,-0.0146,0,0.0342,0.0376,0.0397,0.0419,0.0477,0.048,0.0546,0.0551,0.0581,0.0645,0.0557,0.0575,0.0403,0.031,0.0153,-0.0008,0.0006,-0.0152,-0.018,-0.0145,-0.0144,-0.0161,-0.0161,-0.015,-0.0149,-0.0148,-0.0148,0,0.0379,0.039,0.0442,0.0477,0.0496,0.054,0.0619,0.0672,0.0682,0.0762,0.0761,0.0702,0.0586,0.0395,0.0203,0.006,-0.0109,-0.0177,-0.013,-0.015,-0.0244,-0.024,-0.0302,-0.0303,-0.0304,-0.0304,-0.0305,0,0.0403,0.0429,0.0488,0.0529,0.0549,0.0618,0.0676,0.0718,0.0792,0.085,0.0896,0.081,0.0766,0.0468,0.0201,-0.0074,-0.0113,-0.0225,-0.0246,-0.0237,-0.0259,-0.0253,-0.0247,-0.0238,-0.0238,-0.0238,-0.0238,0,0.045,0.0464,0.0507,0.0591,0.0656,0.0746,0.0836,0.0907,0.0981,0.1038,0.1101,0.1066,0.0803,0.0542,0.0171,-0.0007,-0.0179,-0.0234,-0.0231,-0.0197,-0.0183,-0.0202,-0.0198,-0.0239,-0.0239,-0.0239,-0.0239,-0.0239,0.0486,0.0523,0.0579,0.0662,0.0747,0.0864,0.0949,0.1056,0.1176,0.127,0.1244,0.1204,0.0914,0.0448,0.0127,-0.0193,-0.0181,-0.0296,-0.0294,-0.0292,-0.0262,-0.0249,-0.0313,-0.0314,-0.0314,-0.0314,-0.0314,0,0.0533,0.0573,0.0651,0.0752,0.0855,0.0896,0.1052,0.1138,0.1285,0.1364,0.1396,0.1134,0.0835,0.05,0.002,-0.0274,-0.0291,-0.0356,-0.0318,-0.0315,-0.0312,-0.0282,-0.034,-0.0341,-0.0342,-0.0343,0,0,0.056,0.063,0.0667,0.0826,0.0907,0.1051,0.1144,0.127,0.1361,0.1424,0.1416,0.1346,0.0953,0.06,0.0201,-0.0074,-0.0124,-0.012,-0.0065,0.0032,0.0037,-0.0241,-0.0186,0,0,0,0,0]}],[{"header":{"parameterUnit":"m.s-1","parameterCategory":2,"la1":30.2991,"la2":30.254,"lo1":-89.0895,"lo2":-89.0444,"dy":0.0017,"dx":0.0017,"nx":28,"ny":28,"refTime":"2023-10-26T03:00:00:Z","depth":"4","parameterNumber":2,"parameterNumberName":"U-component_of_CURRENTS"},"data":[0,0,0,0,0,0,0,0,0,0,0,0,0,0,0,0,0,0,0,0,0,0,0,0,0,0,0,0,0,0,0,0,0,0,0,0,0,0,0,0,0,0,0,0,0,0,0,0,0,0,0,0,0,0,0,0,0,0,0.1424,0.1425,0,0.1504,0.1505,0.1506,0.159,0.1591,0.1592,0.1593,0.1702,0.1704,0.1706,0,0,0,0,0,0,0,0,0,0,0,0,0,0.1404,0.1404,0.1424,0.1425,0.1426,0.1504,0.1505,0.1506,0.159,0.1591,0.1593,0.1594,0.1702,0.1704,0.1706,0,0,0,0,0,0,0,0,0,0,0,0,0,0.1441,0.1404,0.1424,0.1477,0.1483,0.1504,0.1505,0.1507,0.1589,0.1591,0.1593,0.1595,0.1701,0.1704,0.1706,0.1687,0,0,0.1715,0.1716,0,0,0,0,0,0,0,0,0.1439,0.1442,0.1468,0.1474,0.148,0.1539,0.1538,0.1569,0.1589,0.1549,0.1593,0.1595,0.1649,0.1656,0.1667,0.1693,0.1697,0.1715,0.1717,0.1718,0.1719,0,0,0,0,0,0,0,0.1436,0.1439,0.1456,0.1469,0.1476,0.1518,0.1525,0.1545,0.1588,0.1552,0.1559,0.1567,0.1653,0.1664,0.167,0.1699,0.1715,0.1717,0.1719,0.172,0.1849,0.1851,0,0,0,0,0,0,0.1421,0.1436,0.1453,0.1458,0.1464,0.1517,0.1524,0.1518,0.1588,0.16,0.1566,0.1571,0.1658,0.1667,0.1674,0.1767,0.1718,0.172,0.1722,0.1847,0.1849,0.1851,0,0,0,0,0,0,0.142,0.1421,0.145,0.145,0.1457,0.1515,0.1508,0.1519,0.157,0.1598,0.1611,0.161,0.166,0.167,0.173,0.1767,0.1721,0.1724,0.1845,0.1848,0.185,0.188,0,0,0,0,0,0,0.1419,0.142,0.1429,0.1448,0.1456,0.1487,0.1506,0.1519,0.157,0.1579,0.1639,0.1649,0.1662,0.1726,0.1733,0.177,0.1726,0.1843,0.1846,0.1849,0.1877,0.1884,0.1889,0,0,0,0,0,0.1418,0.1422,0.1429,0.1432,0.146,0.1488,0.1497,0.1544,0.1571,0.1597,0.1642,0.1649,0.1753,0.1729,0.1737,0.1776,0.1841,0.1845,0.1849,0.1874,0.1882,0.1889,0,0,0,0,0,0,0.143,0.1431,0.1439,0.1447,0.1476,0.1503,0.1536,0.1561,0.1616,0.1637,0.1665,0.1677,0.1747,0.1756,0.1729,0.1825,0.1801,0.1807,0.1818,0.1825,0.1831,0.1839,0.1728,0,0,0,0,0,0.143,0.1432,0.1445,0.1459,0.1472,0.1508,0.1534,0.1562,0.1602,0.1631,0.167,0.1717,0.176,0.179,0.1825,0.1869,0.1891,0.1903,0.1909,0.1914,0.1927,0.1992,0.2005,0.1865,0.1865,0.1865,0,0,0.144,0.1443,0.1446,0.1463,0.149,0.1509,0.153,0.1575,0.1609,0.1631,0.1704,0.174,0.1778,0.1836,0.1868,0.1854,0.1965,0.1919,0.1923,0.1934,0.1997,0.2011,0.2023,0.1867,0.1867,0.1866,0,0,0.1454,0.1463,0.1468,0.1488,0.1525,0.154,0.1559,0.16,0.1646,0.1705,0.1735,0.1798,0.1858,0.1895,0.192,0.1981,0.1996,0.1996,0.2033,0.2095,0.2107,0.2118,0.2157,0.2171,0.1998,0.1998,0.1998,0,0.1474,0.1471,0.1482,0.1496,0.1517,0.1555,0.1575,0.1617,0.1679,0.1722,0.174,0.1857,0.1889,0.1962,0.199,0.1996,0.2026,0.1997,0.2103,0.2114,0.2124,0.2162,0.2177,0.2,0.2,0.1999,0.1999,0,0.1473,0.1494,0.1507,0.1523,0.1547,0.1578,0.1617,0.1668,0.1723,0.1767,0.187,0.1919,0.1994,0.2013,0.2024,0.2115,0.211,0.2102,0.2079,0.214,0.2176,0.2191,0.2003,0.2002,0.2001,0.2001,0,0,0.146,0.1497,0.1505,0.1525,0.1566,0.1583,0.1645,0.1707,0.1769,0.1845,0.1932,0.2015,0.206,0.2092,0.2119,0.2171,0.2269,0.2175,0.2177,0.2205,0.2401,0.2246,0.2247,0.2282,0.2285,0.2287,0.2393,0,0.1465,0.1486,0.1505,0.1547,0.1564,0.1615,0.1669,0.1736,0.1812,0.1906,0.1987,0.2082,0.2085,0.214,0.2196,0.2259,0.2312,0.2241,0.2345,0.2348,0.2197,0.226,0.2297,0.2404,0.2407,0.241,0.2412,0,0.1451,0.1469,0.15,0.1564,0.1579,0.1615,0.1705,0.1762,0.189,0.1957,0.206,0.2135,0.2247,0.2238,0.2377,0.2334,0.238,0.2413,0.2417,0.2273,0.2221,0.2335,0.2439,0.2437,0.2435,0.2433,0.2431,0,0.1413,0.1469,0.1494,0.1512,0.1583,0.163,0.1682,0.1791,0.1851,0.2008,0.208,0.221,0.2306,0.2382,0.2471,0.2443,0.2607,0.2571,0.2468,0.2457,0.2551,0.2538,0.2669,0.2669,0.2668,0.2668,0.2668,0,0.1386,0.1415,0.1491,0.1502,0.156,0.1622,0.1706,0.1781,0.1898,0.1979,0.2116,0.2202,0.2354,0.2464,0.2509,0.2537,0.2645,0.2489,0.248,0.2559,0.2547,0.2561,0.2547,0.2672,0.2671,0.267,0.267,0,0.1328,0.1379,0.1418,0.1504,0.1544,0.1585,0.1698,0.1754,0.1881,0.1992,0.2052,0.2234,0.2376,0.2493,0.2635,0.2577,0.2622,0.2604,0.2692,0.2684,0.2418,0.2405,0.2487,0.2483,0.2479,0.2476,0.2473,0,0.1292,0.1308,0.1403,0.1432,0.1478,0.1557,0.1613,0.1735,0.1789,0.1993,0.2036,0.2235,0.2347,0.242,0.2544,0.2613,0.2588,0.2581,0.2483,0.2419,0.2404,0.2396,0.2388,0.2467,0.2466,0.2465,0.2464,0,0.1222,0.1271,0.1297,0.1357,0.142,0.1473,0.1565,0.1589,0.1739,0.1879,0.1984,0.2077,0.2231,0.2338,0.2417,0.2457,0.2563,0.2541,0.2547,0.2455,0.2396,0.2382,0.2379,0.2451,0.2453,0.2454,0.2455,0,0.1177,0.1174,0.122,0.1265,0.1335,0.1361,0.1423,0.1497,0.1566,0.1784,0.1825,0.2036,0.2211,0.226,0.2333,0.2362,0.2321,0.223,0.2252,0.2268,0.2148,0.2037,0.1989,0,0,0,0,0,0.1126,0.1106,0.1125,0.1156,0.1217,0.1268,0.1374,0.144,0.1602,0.1626,0.1711,0.1846,0.1965,0.2077,0.2066,0.2238,0.2326,0.2213,0.223,0.2378,0.2393,0.2272,0,0,0,0,0,0,0.1084,0.1091,0.1082,0.1059,0.1072,0.1126,0.1197,0.1307,0.1325,0.1506,0.1589,0.173,0.1884,0.1964,0.2034,0.2065,0.2035,0.2341,0.2336,0.2369,0.2383,0.2395,0.2276,0,0,0,0,0]},{"header":{"parameterUnit":"m.s-1","parameterCategory":2,"la1":30.2991,"la2":30.254,"lo1":-89.0895,"lo2":-89.0444,"dy":0.0017,"dx":0.0017,"nx":28,"ny":28,"refTime":"2023-10-26T03:00:00:Z","depth":"4","parameterNumber":3,"parameterNumberName":"V-component_of_CURRENTS"},"data":[0,0,0,0,0,0,0,0,0,0,0,0,0,0,0,0,0,0,0,0,0,0,0,0,0,0,0,0,0,0,0,0,0,0,0,0,0,0,0,0,0,0,0,0,0,0,0,0,0,0,0,0,0,0,0,0,0,0,0.0167,0.0166,0,0.0138,0.0137,0.0137,0.0093,0.0093,0.0092,0.0092,0.0016,0.0015,0.0014,0,0,0,0,0,0,0,0,0,0,0,0,0,0.0145,0.0145,0.0167,0.0166,0.0166,0.0138,0.0137,0.0137,0.0094,0.0093,0.0092,0.0092,0.0017,0.0015,0.0013,0,0,0,0,0,0,0,0,0,0,0,0,0,0.0137,0.0146,0.0167,0.0143,0.0141,0.0138,0.0137,0.0136,0.0094,0.0093,0.0092,0.0091,0.0018,0.0015,0.0013,0.0015,0,0,0.0006,0.0005,0,0,0,0,0,0,0,0,0.0137,0.0137,0.0147,0.0145,0.0142,0.0121,0.0102,0.0094,0.0094,0.0109,0.0092,0.0091,0.0049,0.0044,0.0038,0.0012,0.0008,0.0006,0.0005,0.0004,0.0003,0,0,0,0,0,0,0,0.0138,0.0138,0.0153,0.0147,0.0144,0.0121,0.0119,0.01,0.0081,0.0108,0.0105,0.0106,0.0047,0.004,0.0036,0.0007,0.0006,0.0004,0.0003,0.0002,-0.0023,-0.0023,0,0,0,0,0,0,0.015,0.0139,0.0154,0.0152,0.0141,0.0122,0.012,0.0126,0.0082,0.0076,0.0107,0.0104,0.0044,0.0038,0.0033,0.0036,0.0004,0.0002,0.0,-0.0024,-0.0023,-0.0022,0,0,0,0,0,0,0.0149,0.0152,0.0155,0.0146,0.0145,0.0124,0.0131,0.0126,0.012,0.0083,0.0075,0.0106,0.0043,0.0036,0.0024,0.0033,0.0001,-0.0002,-0.0025,-0.0024,-0.0023,0.0041,0,0,0,0,0,0,0.0149,0.0152,0.0159,0.0147,0.0146,0.0158,0.0132,0.0126,0.0123,0.0119,0.0079,0.0071,0.0042,0.0028,0.0022,0.0029,-0.0003,-0.0026,-0.0024,-0.0023,0.0038,0.0044,0.0049,0,0,0,0,0,0.0148,0.0165,0.016,0.0162,0.0158,0.0158,0.0156,0.0135,0.0124,0.0126,0.0102,0.0073,0.0031,0.0027,0.0019,0.0026,-0.0026,-0.0025,-0.0023,0.0036,0.0043,0.0049,0,0,0,0,0,0,0.0156,0.0162,0.0156,0.0173,0.0168,0.0152,0.0154,0.0143,0.0126,0.0121,0.0084,0.0075,0.0067,0.0041,0.0037,0.0023,-0.0003,-0.0003,0.0044,0.0051,0.0056,0.0062,-0.0005,0,0,0,0,0,0.0164,0.0179,0.0175,0.0188,0.0188,0.0173,0.017,0.0159,0.0145,0.0136,0.0111,0.0086,0.0068,0.0056,0.0035,0.003,-0.0009,0.0029,0.0035,0.004,0.004,-0.0008,-0.0007,-0.0017,-0.0017,-0.0017,0,0,0.0169,0.0176,0.0182,0.0191,0.0184,0.0193,0.0169,0.0171,0.0175,0.0131,0.0129,0.0105,0.0072,0.0066,0.006,0.0045,0.0024,0.0042,0.0046,0.0044,-0.0006,-0.0005,-0.0004,-0.0016,-0.0016,-0.0017,0,0,0.0187,0.0195,0.021,0.0213,0.0214,0.021,0.0214,0.0204,0.0195,0.0193,0.0165,0.0149,0.0122,0.0101,0.0087,0.0112,0.0057,0.0106,0.0136,0.009,0.009,0.009,0.0046,0.0041,0.0106,0.0107,0.0107,0,0.019,0.0214,0.0213,0.0228,0.0236,0.0222,0.0238,0.0232,0.0218,0.0217,0.0199,0.0163,0.0137,0.0128,0.0138,0.0124,0.0088,0.0114,0.0097,0.0095,0.0094,0.0049,0.0043,0.011,0.0109,0.0109,0.0109,0,0.0217,0.0236,0.0247,0.0265,0.0273,0.0286,0.0284,0.0287,0.0278,0.0267,0.0255,0.0219,0.0196,0.0188,0.017,0.0155,0.0131,0.0111,0.0079,0.0099,0.005,0.0043,0.0114,0.0113,0.0112,0.0112,0,0,0.0227,0.026,0.0263,0.0281,0.0297,0.0308,0.0323,0.0333,0.0344,0.0318,0.032,0.0291,0.0267,0.025,0.0222,0.0185,0.0149,0.0149,0.0145,0.0106,0.0045,0.0041,0.0032,0.0123,0.0122,0.0121,0.0017,0,0.0247,0.0286,0.0298,0.0337,0.0358,0.0361,0.0381,0.0386,0.038,0.0378,0.0335,0.0326,0.0291,0.0283,0.0241,0.0174,0.0131,0.0179,0.0031,0.0027,0.0021,0.0024,0.0118,0.0011,0.0009,0.0008,0.0007,0,0.0271,0.0297,0.0338,0.0382,0.0392,0.0415,0.0449,0.0465,0.0459,0.0449,0.0424,0.0387,0.0343,0.0306,0.0188,0.0218,0.0139,0.0078,0.0072,0.004,0.001,-0.0015,-0.0008,-0.0007,-0.0006,-0.0005,-0.0004,0,0.0283,0.0328,0.0365,0.0379,0.0422,0.0445,0.0473,0.0486,0.0511,0.0495,0.0496,0.043,0.0399,0.0291,0.0175,0.0175,0.0034,0.0014,-0.0069,-0.007,-0.0065,-0.0064,-0.0081,-0.0081,-0.0081,-0.008,-0.008,0,0.0304,0.0336,0.0377,0.0398,0.0454,0.0474,0.0529,0.0542,0.0563,0.0592,0.0536,0.0526,0.0392,0.03,0.0183,0.0039,0.0034,-0.0066,-0.0098,-0.0035,-0.0029,-0.0071,-0.0068,-0.0084,-0.0083,-0.0083,-0.0082,0,0.0312,0.0336,0.0386,0.0439,0.0463,0.0504,0.0581,0.0619,0.0629,0.066,0.0657,0.0592,0.0471,0.0331,0.0154,0.0057,-0.0085,-0.0138,-0.0054,-0.008,-0.0164,-0.0157,-0.0246,-0.0247,-0.0248,-0.0249,-0.0249,0,0.0321,0.0345,0.0416,0.0454,0.0483,0.055,0.0604,0.0649,0.069,0.0698,0.071,0.0616,0.0549,0.0305,0.0148,-0.0081,-0.0114,-0.0192,-0.0183,-0.0159,-0.0182,-0.0173,-0.0165,-0.0251,-0.0251,-0.0251,-0.0251,0,0.0339,0.0362,0.0403,0.048,0.0543,0.0619,0.0693,0.0724,0.0771,0.078,0.0752,0.0633,0.0497,0.0309,0.0136,-0.003,-0.0143,-0.0202,-0.0202,-0.0194,-0.0166,-0.0185,-0.0176,-0.0254,-0.0254,-0.0254,-0.0253,0,0.0353,0.0382,0.0437,0.0505,0.0586,0.0661,0.07,0.0749,0.0791,0.08,0.0785,0.0646,0.0571,0.0334,0.0172,0.0014,-0.0034,-0.0092,-0.0098,-0.0097,-0.0021,0.0039,-0.0016,0,0,0,0,0,0.0366,0.0398,0.0461,0.0537,0.0616,0.0666,0.0751,0.0784,0.0821,0.0812,0.0805,0.0681,0.045,0.0352,0.0191,0.0134,-0.0076,-0.0062,-0.0149,-0.0271,-0.0267,-0.0203,0,0,0,0,0,0,0.0375,0.0428,0.0457,0.055,0.0604,0.0699,0.0753,0.078,0.0778,0.0788,0.0673,0.063,0.0408,0.0542,0.0185,0.0137,0.0057,-0.0163,-0.0167,-0.0273,-0.0269,-0.0267,-0.02,0,0,0,0,0]}]]